Location: Newark
(37.8333°N, 119.5000°W)
Time: 13:57:08
(UTC+00:00)

Tiros 1 despin weight - Pass Details

Date: 20 August 2019
Orbit: 594 x 642 km, 48.2° (Epoch: 21 September)

Event Time Altitude Azimuth Distance (km) Brightness Sun altitude
Rises 09:29:57 0° 268° (W) 2,843 - -35.6°
Reaches altitude 10° 09:32:26 10° 279° (W) 1,949 - -35.4°
Maximum altitude 09:36:25 31° 342° (NNW) 1,080 - -35.0°
Exits shadow 09:38:37 21° 28° (NNE) 1,406 ? -34.8°
Drops below altitude 10° 09:40:29 10° 45° (NE) 1,980 ? -34.6°
Sets 09:43:02 0° 56° (NE) 2,896 ? -34.3°
